Location: Asarope
(8.2500°N, 4.4833°E)
Time: 22:36:50
(UTC+00:00)

CZ-2C R/B - Pass Details

Date: 07 June 2020
Orbit: 668 x 784 km, 98.2° (Epoch: 10 July)

Event Time Altitude Azimuth Distance (km) Brightness Sun altitude
Rises 04:15:15 0° 350° (N) 3,251 6.0 -16.1°
Reaches altitude 10° 04:17:58 10° 337° (NNW) 2,315 5.0 -15.5°
Maximum altitude 04:22:00 24° 285° (WNW) 1,551 3.7 -14.6°
Enters shadow 04:23:37 20° 257° (WSW) 1,689 3.7 -14.3°
